Date String (YYYY-MM-DD hh:mm:ss) UTC,Instrument flags,absolute air pressure of the measurement (hPa),sample flow rate (lpm),inlet stack bypass flow (lpm),air temperature of the measurement (°C),ambient temperature measured by the external sensor (°C),aerosol sample conditioner tube jacket temperature (°C),OPC LED temperature (°C),internal box temperature (°C),relative humidity of the measurement (%),span deviation,mass concentration of particles derived from Lorenz-Mie calculation of OPC scattering (μg/m³),mass concentration of particles derived from Lorenz-Mie calculation of OPC scattering (μg/m³),mass concentration of particles derived from Lorenz-Mie calculation of OPC scattering (μg/m³)
DateTimeUTC,F1_M11,P_M11,Q1_M11,Q2_M11,T1_M11,T2_M11,T3_M11,T4_M11,T5_M11,U1_M11,ZSPAN_M11,X0_M11,X2_M11,X1_M11
2024-05-13 23:00:00,SystemResetWarning,0825.6,5.00,000.00,023.9,022.6,000.0,032.2,025.6,025.8,0000.0,0004.58,0003.14,0002.65
2024-05-13 23:01:00,SystemResetWarning,0825.7,5.01,000.00,024.0,022.9,000.0,032.1,025.8,026.1,0000.0,0005.43,0003.14,0002.64
2024-05-13 23:02:00,SystemResetWarning,0825.7,5.01,000.00,024.1,023.2,000.0,032.1,026.0,026.4,0000.0,0005.84,0003.15,0002.65
2024-05-13 23:03:00,SystemResetWarning,0825.7,5.00,000.00,024.2,023.4,000.0,032.2,026.1,024.4,0000.0,0006.33,0003.16,0002.65
2024-05-13 23:04:00,SystemResetWarning,0825.7,4.99,000.00,024.2,023.6,000.0,032.2,026.2,023.4,0000.0,0006.67,0003.17,0002.64
2024-05-13 23:05:00,SystemResetWarning,0825.6,5.00,000.00,024.3,023.8,000.0,032.2,026.3,024.0,0000.0,0006.69,0003.18,0002.64
2024-05-13 23:06:00,SystemResetWarning,0825.6,5.00,000.00,024.4,024.0,000.0,032.3,026.4,024.6,0000.0,0006.86,0003.22,0002.66
2024-05-13 23:07:00,SystemResetWarning,0825.6,5.00,000.00,024.5,024.1,000.0,032.3,026.4,024.5,0000.0,0007.26,0003.23,0002.65
2024-05-13 23:08:00,SystemResetWarning,0825.6,5.00,000.00,024.6,024.2,000.0,032.4,026.5,024.3,0000.0,0007.99,0003.23,0002.63
2024-05-13 23:09:00,SystemResetWarning,0825.6,4.99,000.00,024.6,023.4,000.0,032.5,026.1,023.5,0000.0,0008.14,0003.25,0002.62
2024-05-13 23:10:00,SystemResetWarning,0825.4,5.00,000.00,024.2,021.4,000.0,032.5,025.0,024.4,0000.0,0008.21,0003.24,0002.61
2024-05-13 23:11:00,SystemResetWarning,0825.4,5.01,000.00,023.9,021.0,000.0,032.5,024.7,025.0,0000.0,0008.01,0003.22,0002.60
2024-05-13 23:12:00,SystemResetWarning,0825.4,5.01,000.00,023.8,021.5,000.0,032.4,024.9,025.5,0000.0,0007.73,0003.24,0002.60
2024-05-13 23:13:00,SystemResetWarning,0825.4,4.99,000.00,023.8,021.9,000.0,032.3,025.1,024.2,0000.0,0007.44,0003.24,0002.58
2024-05-13 23:14:00,SystemResetWarning,0825.4,4.99,000.00,023.9,022.3,000.0,032.3,025.4,024.2,0000.0,0007.19,0003.23,0002.58
2024-05-13 23:15:00,SystemResetWarning,0825.4,5.00,000.00,023.9,022.6,000.0,032.2,025.6,023.4,0000.0,0007.16,0003.22,0002.59
2024-05-13 23:16:00,SystemResetWarning,0825.4,5.00,000.00,024.0,022.9,000.0,032.2,025.8,023.3,0000.0,0007.19,0003.23,0002.61
2024-05-13 23:17:00,SystemResetWarning,0825.4,5.01,000.00,024.1,023.2,000.0,032.2,026.0,023.8,0000.0,0007.25,0003.23,0002.61
2024-05-13 23:18:00,SystemResetWarning,0825.4,5.00,000.00,024.2,023.5,000.0,032.2,026.1,024.3,0000.0,0006.81,0003.20,0002.62
2024-05-13 23:19:00,SystemResetWarning,0825.4,4.98,000.00,024.3,023.7,000.0,032.2,026.2,024.0,0000.0,0005.69,0003.21,0002.62
2024-05-13 23:20:00,SystemResetWarning,0825.4,5.01,000.00,024.4,023.8,000.0,032.3,026.3,022.6,0000.0,0005.65,0003.19,0002.64
2024-05-13 23:21:00,SystemResetWarning,0825.4,5.00,000.00,024.4,024.0,000.0,032.3,026.4,023.4,0000.0,0005.98,0003.21,0002.67
2024-05-13 23:22:00,SystemResetWarning,0825.4,5.01,000.00,024.5,024.1,000.0,032.4,026.5,023.7,0000.0,0006.07,0003.25,0002.68
2024-05-13 23:23:00,SystemResetWarning,0825.4,4.99,000.00,024.6,024.0,000.0,032.4,026.4,023.8,0000.0,0005.97,0003.25,0002.71
2024-05-13 23:24:00,SystemResetWarning,0825.2,5.00,000.00,024.4,022.2,000.0,032.5,025.4,023.9,0000.0,0006.36,0003.25,0002.73
2024-05-13 23:25:00,SystemResetWarning,0825.3,5.01,000.00,024.0,021.0,000.0,032.6,024.7,025.3,0000.0,0006.87,0003.30,0002.77
2024-05-13 23:26:00,SystemResetWarning,0825.3,5.02,000.00,023.8,021.3,000.0,032.5,024.8,026.0,0000.0,0007.65,0003.35,0002.82
2024-05-13 23:27:00,SystemResetWarning,0825.3,4.99,000.00,023.8,021.7,000.0,032.4,025.1,025.1,0000.0,0007.78,0003.39,0002.87
2024-05-13 23:28:00,SystemResetWarning,0825.4,4.99,000.00,023.8,022.1,000.0,032.3,025.3,024.5,0000.0,0007.76,0003.42,0002.95
2024-05-13 23:29:00,SystemResetWarning,0825.4,5.00,000.00,023.9,022.5,000.0,032.2,025.5,024.7,0000.0,0007.79,0003.45,0002.99
2024-05-13 23:30:00,SystemResetWarning,0825.4,5.00,000.00,024.0,022.9,000.0,032.2,025.7,024.7,0000.0,0007.87,0003.50,0003.05
2024-05-13 23:31:00,SystemResetWarning,0825.4,4.99,000.00,024.1,023.2,000.0,032.2,025.9,025.1,0000.0,0007.89,0003.55,0003.12
2024-05-13 23:32:00,SystemResetWarning,0825.5,4.99,000.00,024.2,023.4,000.0,032.2,026.1,024.0,0000.0,0008.40,0003.60,0003.15
2024-05-13 23:33:00,SystemResetWarning,0825.5,5.00,000.00,024.3,023.6,000.0,032.2,026.2,024.2,0000.0,0008.94,0003.68,0003.21
2024-05-13 23:34:00,SystemResetWarning,0825.6,5.01,000.00,024.3,023.8,000.0,032.3,026.3,024.2,0000.0,0009.66,0003.72,0003.26
2024-05-13 23:35:00,SystemResetWarning,0825.6,5.00,000.00,024.4,024.0,000.0,032.3,026.4,024.1,0000.0,0009.73,0003.78,0003.30
2024-05-13 23:36:00,SystemResetWarning,0825.6,5.01,000.00,024.5,024.1,000.0,032.4,026.5,023.5,0000.0,0009.48,0003.83,0003.34
2024-05-13 23:37:00,SystemResetWarning,0825.4,4.98,000.00,024.4,022.8,000.0,032.5,025.8,024.2,0000.0,0009.14,0003.85,0003.39
2024-05-13 23:38:00,SystemResetWarning,0825.2,5.01,000.00,024.0,021.0,000.0,032.5,024.7,024.6,0000.0,0008.68,0003.87,0003.41
2024-05-13 23:39:00,SystemResetWarning,0825.0,5.02,000.00,023.8,021.1,000.0,032.5,024.7,025.6,0000.0,0008.63,0003.88,0003.42
2024-05-13 23:40:00,SystemResetWarning,0824.9,5.00,000.00,023.7,021.5,000.0,032.4,024.9,026.1,0000.0,0008.69,0003.87,0003.43
2024-05-13 23:41:00,SystemResetWarning,0824.8,5.00,000.00,023.8,021.9,000.0,032.3,025.2,025.9,0000.0,0008.85,0003.84,0003.42
2024-05-13 23:42:00,SystemResetWarning,0824.8,5.01,000.00,023.8,022.3,000.0,032.2,025.5,026.8,0000.0,0008.99,0003.86,0003.42
2024-05-13 23:43:00,SystemResetWarning,0824.7,5.00,000.00,023.9,022.7,000.0,032.2,025.6,026.1,0000.0,0009.21,0003.88,0003.43
2024-05-13 23:44:00,SystemResetWarning,0824.8,4.99,000.00,024.0,023.0,000.0,032.2,025.8,025.2,0000.0,0008.93,0003.85,0003.40
2024-05-13 23:45:00,SystemResetWarning,0824.9,4.98,000.00,024.1,023.2,000.0,032.2,026.0,024.9,0000.0,0008.30,0003.86,0003.39
2024-05-13 23:46:00,SystemResetWarning,0824.9,5.00,000.00,024.2,023.5,000.0,032.2,026.1,025.4,0000.0,0008.48,0003.86,0003.39
2024-05-13 23:47:00,SystemResetWarning,0824.9,5.00,000.00,024.2,023.7,000.0,032.2,026.2,025.4,0000.0,0009.32,0003.89,0003.40
2024-05-13 23:48:00,SystemResetWarning,0824.9,5.01,000.00,024.3,023.8,000.0,032.3,026.3,025.4,0000.0,0009.38,0003.91,0003.39
2024-05-13 23:49:00,SystemResetWarning,0824.9,5.00,000.00,024.4,024.0,000.0,032.3,026.4,025.2,0000.0,0009.37,0003.91,0003.40
2024-05-13 23:50:00,SystemResetWarning,0825.0,4.99,000.00,024.5,024.0,000.0,032.4,026.4,025.4,0000.0,0009.32,0003.91,0003.41
2024-05-13 23:51:00,SystemResetWarning,0824.9,4.99,000.00,024.4,022.5,000.0,032.5,025.5,026.0,0000.0,0009.31,0003.93,0003.42
2024-05-13 23:52:00,SystemResetWarning,0824.9,5.01,000.00,024.0,021.0,000.0,032.5,024.7,027.3,0000.0,0009.33,0003.95,0003.44
2024-05-13 23:53:00,SystemResetWarning,0824.9,5.01,000.00,023.7,021.1,000.0,032.5,024.7,027.7,0000.0,0009.54,0003.98,0003.47
2024-05-13 23:54:00,SystemResetWarning,0824.9,4.99,000.00,023.7,021.5,000.0,032.3,024.9,028.5,0000.0,0009.30,0004.04,0003.50
2024-05-13 23:55:00,SystemResetWarning,0825.0,5.00,000.00,023.7,021.9,000.0,032.2,025.2,028.6,0000.0,0008.71,0004.06,0003.52
2024-05-13 23:56:00,SystemResetWarning,0825.0,5.00,000.00,023.8,022.3,000.0,032.2,025.4,028.1,0000.0,0008.84,0004.08,0003.54
2024-05-13 23:57:00,SystemResetWarning,0824.9,5.00,000.00,023.9,022.7,000.0,032.1,025.6,027.6,0000.0,0008.99,0004.11,0003.56
2024-05-13 23:58:00,SystemResetWarning,0824.9,4.99,000.00,024.0,023.0,000.0,032.1,025.8,027.5,0000.0,0008.13,0004.15,0003.60
2024-05-13 23:59:00,SystemResetWarning,0824.9,4.99,000.00,024.1,023.3,000.0,032.1,026.0,027.3,0000.0,0008.19,0004.16,0003.64
